DW4466 Weather Reports


Display with metric or nautical units.
time (UTC)temp
F
wind
direction
speed
MPH
gust
MPH
rain 1hr
in
rain 24hr
in
rain mn
in
humidity
%
barometer
mb
20260505195519 81 271 9.0 24.0 0.00 0.00 0.00 34 1006.6
20260505195046 82 308 10.0 20.0 0.00 0.00 0.00 36 1006.6
20260505194523 82 311 7.0 17.0 0.00 0.00 0.00 36 1006.6
20260505194052 82 282 7.0 17.0 0.00 0.00 0.00 37 1006.7
20260505193511 81 306 8.0 18.0 0.00 0.00 0.00 36 1006.7
20260505193102 82 360 11.0 21.0 0.00 0.00 0.00 37 1006.7
20260505192513 82 286 10.0 22.0 0.00 0.00 0.00 39 1006.7
20260505192048 82 304 12.0 21.0 0.00 0.00 0.00 37 1006.9
20260505191532 82 208 6.0 20.0 0.00 0.00 0.00 41 1006.7
20260505191056 81 149 5.0 25.0 0.00 0.00 0.00 38 1006.7
20260505190529 82 283 11.0 23.0 0.00 0.00 0.00 37 1006.9
20260505190005 82 305 6.0 21.0 0.00 0.00 0.00 40 1007.0
20260505185538 82 288 5.0 13.0 0.00 0.00 0.00 40 1007.0
20260505185012 81 321 6.0 16.0 0.00 0.00 0.00 40 1007.1
20260505184551 81 238 7.0 19.0 0.00 0.00 0.00 40 1007.1
20260505184016 81 283 8.0 19.0 0.00 0.00 0.00 40 1007.2
20260505183533 81 17 6.0 16.0 0.00 0.00 0.00 40 1007.1
20260505183006 81 236 8.0 16.0 0.00 0.00 0.00 40 1007.2
20260505182539 81 261 9.0 17.0 0.00 0.00 0.00 40 1007.3
20260505182012 81 318 10.0 20.0 0.00 0.00 0.00 39 1007.5
20260505181546 81 283 7.0 17.0 0.00 0.00 0.00 41 1007.5
20260505181023 80 256 6.0 15.0 0.00 0.00 0.00 41 1007.5
20260505180539 80 267 8.0 17.0 0.00 0.00 0.00 42 1007.8
20260505180008 80 221 2.0 17.0 0.00 0.00 0.00 41 1007.8
20260505175537 80 302 7.0 19.0 0.00 0.00 0.00 42 1008.0
20260505175010 80 295 8.0 19.0 0.00 0.00 0.00 41 1008.0
20260505174544 80 254 9.0 19.0 0.00 0.00 0.00 41 1008.0
20260505174026 80 294 7.0 19.0 0.00 0.00 0.00 44 1008.1
20260505173542 80 244 8.0 15.0 0.00 0.00 0.00 45 1008.3
20260505173016 79 356 5.0 18.0 0.00 0.00 0.00 44 1008.3
20260505172547 79 226 10.0 18.0 0.00 0.00 0.00 43 1008.3
20260505172017 79 283 3.0 19.0 0.00 0.00 0.00 42 1008.4
20260505171551 79 260 8.0 19.0 0.00 0.00 0.00 42 1008.5
20260505171008 79 315 3.0 13.0 0.00 0.00 0.00 42 1008.3
20260505170539 79 283 6.0 16.0 0.00 0.00 0.00 40 1008.5
20260505170019 79 75 7.0 18.0 0.00 0.00 0.00 42 1008.7
20260505165553 79 248 5.0 17.0 0.00 0.00 0.00 40 1008.7
20260505165012 79 7 5.0 14.0 0.00 0.00 0.00 43 1008.6
20260505164546 78 315 6.0 14.0 0.00 0.00 0.00 41 1009.0
20260505164018 78 288 4.0 17.0 0.00 0.00 0.00 42 1009.1
20260505163555 78 283 8.0 17.0 0.00 0.00 0.00 42 1009.0
20260505163036 78 201 6.0 13.0 0.00 0.00 0.00 44 1009.0
20260505162600 78 282 6.0 13.0 0.00 0.00 0.00 43 1009.1
20260505162015 78 297 6.0 15.0 0.00 0.00 0.00 45 1009.2
20260505161548 78 300 7.0 16.0 0.00 0.00 0.00 43 1009.3
20260505161022 78 177 6.0 15.0 0.00 0.00 0.00 42 1009.3
20260505160553 78 292 3.0 12.0 0.00 0.00 0.00 45 1009.3
20260505153037 76 316 6.0 17.0 0.00 0.00 0.00 45 1009.8
20260505152504 76 276 6.0 12.0 0.00 0.00 0.00 45 1009.8
20260505152037 76 34 4.0 16.0 0.00 0.00 0.00 45 1009.8
20260505151508 76 54 5.0 16.0 0.00 0.00 0.00 45 1009.7
20260505151044 76 340 6.0 12.0 0.00 0.00 0.00 46 1009.7
20260505150515 76 233 4.0 12.0 0.00 0.00 0.00 45 1009.6
20260505140533 72 330 3.0 10.0 0.00 0.00 0.00 55 1009.8
20260505140106 72 292 2.0 8.0 0.00 0.00 0.00 54 1009.7
20260505124529 64 302 1.0 8.0 0.00 0.00 0.00 65 1010.5
20260505124004 64 298 3.0 7.0 0.00 0.00 0.00 65 1010.4
20260505123536 63 287 0.0 5.0 0.00 0.00 0.00 66 1010.4
20260505123008 63 346 2.0 6.0 0.00 0.00 0.00 66 1010.4
20260505122545 62 313 3.0 10.0 0.00 0.00 0.00 66 1010.5
20260505122025 62 268 4.0 10.0 0.00 0.00 0.00 66 1010.6
20260505121537 62 346 4.0 7.0 0.00 0.00 0.00 67 1010.5
20260505121011 61 16 2.0 7.0 0.00 0.00 0.00 68 1010.5
20260505120543 61 308 3.0 7.0 0.00 0.00 0.00 69 1010.6
20260505120027 60 8 3.0 6.0 0.00 0.00 0.00 70 1010.5
20260505115546 60 6 0.0 6.0 0.00 0.00 0.00 72 1010.5
20260505115023 59 298 0.0 7.0 0.00 0.00 0.00 73 1010.4
20260505114553 59 323 1.0 7.0 0.00 0.00 0.00 73 1010.4
20260505114025 58 262 1.0 7.0 0.00 0.00 0.00 73 1010.3
20260505113508 58 24 0.0 5.0 0.00 0.00 0.00 74 1010.2
20260505113049 58 14 1.0 5.0 0.00 0.00 0.00 74 1010.1
20260505112512 58 46 1.0 5.0 0.00 0.00 0.00 76 1010.1
20260505112046 58 25 0.0 5.0 0.00 0.00 0.00 75 1010.1
20260505111530 57 1 1.0 5.0 0.00 0.00 0.00 75 1010.0
20260505111051 57 350 0.0 3.0 0.00 0.00 0.00 76 1009.9
20260505110526 57 21 0.0 2.0 0.00 0.00 0.00 76 1009.9
20260505110117 57 301 0.0 2.0 0.00 0.00 0.00 76 1009.9
20260505102006 56 321 1.0 5.0 0.00 0.00 0.00 78 1009.3
20260505101530 56 280 1.0 5.0 0.00 0.00 0.00 78 1009.3
20260505101042 56 343 0.0 3.0 0.00 0.00 0.00 77 1009.2
20260505100516 56 319 0.0 3.0 0.00 0.00 0.00 77 1009.1
20260505100048 56 329 0.0 2.0 0.00 0.00 0.00 77 1009.1
20260505095527 56 319 0.0 4.0 0.00 0.00 0.00 77 1009.0
20260505095043 56 291 1.0 4.0 0.00 0.00 0.00 78 1009.0
20260505094510 55 296 1.0 4.0 0.00 0.00 0.00 79 1009.1
20260505094044 55 256 0.0 5.0 0.00 0.00 0.00 79 1008.9
20260505093516 54 263 0.0 5.0 0.00 0.00 0.00 80 1009.0
20260505093048 54 221 0.0 3.0 0.00 0.00 0.00 81 1008.8
20260505092504 54 248 0.0 0.0 0.00 0.00 0.00 81 1008.9
20260505092039 54 7 0.0 5.0 0.00 0.00 0.00 81 1008.9
20260505091511 55 286 0.0 5.0 0.00 0.00 0.00 80 1008.8
20260505091042 54 58 0.0 3.0 0.00 0.00 0.00 80 1008.8
20260505090515 55 58 1.0 3.0 0.00 0.00 0.00 80 1008.8
20260505090109 55 43 0.0 4.0 0.00 0.00 0.00 80 1008.8
20260505085510 55 46 0.0 4.0 0.00 0.00 0.00 80 1008.8
20260505085044 55 40 0.0 2.0 0.00 0.00 0.00 80 1008.8
20260505084514 55 6 0.0 0.0 0.00 0.00 0.00 81 1008.9
20260505084047 55 356 0.0 3.0 0.00 0.00 0.00 81 1008.9
20260505083524 54 266 0.0 3.0 0.00 0.00 0.00 81 1008.9
20260505083105 54 321 0.0 4.0 0.00 0.00 0.00 82 1008.8
20260505082534 54 246 0.0 7.0 0.00 0.00 0.00 82 1008.9
20260505082047 54 277 0.0 7.0 0.00 0.00 0.00 82 1008.9
20260505081521 54 358 0.0 1.0 0.00 0.00 0.00 82 1008.8
20260505081052 54 263 0.0 1.0 0.00 0.00 0.00 82 1008.8
20260505080522 55 351 0.0 3.0 0.00 0.00 0.00 81 1008.7
20260505080044 55 351 0.0 3.0 0.00 0.00 0.00 81 1008.6
20260505075508 55 346 0.0 5.0 0.00 0.00 0.00 81 1008.6
20260505075043 55 266 1.0 5.0 0.00 0.00 0.00 81 1008.7
20260505074517 55 310 0.0 4.0 0.00 0.00 0.00 80 1008.6
20260505074046 55 338 0.0 4.0 0.00 0.00 0.00 80 1008.6
20260505073504 55 316 0.0 3.0 0.00 0.00 0.00 80 1008.5
20260505073048 55 345 0.0 3.0 0.00 0.00 0.00 80 1008.4
20260505072509 55 275 0.0 0.0 0.00 0.00 0.00 80 1008.4
20260505072041 55 307 0.0 0.0 0.00 0.00 0.00 80 1008.3
20260505071516 55 350 0.0 1.0 0.00 0.00 0.00 80 1008.3
20260505071054 55 43 0.0 2.0 0.00 0.00 0.00 80 1008.3
20260505070510 55 197 0.0 2.0 0.00 0.00 0.00 80 1008.3
20260505070043 55 284 0.0 2.0 0.00 0.00 0.00 80 1008.4
20260505065510 56 234 0.0 2.0 0.00 0.00 0.00 79 1008.4
20260505065040 56 285 0.0 5.0 0.00 0.00 0.00 79 1008.4
20260505064513 56 238 0.0 5.0 0.00 0.00 0.00 79 1008.3
20260505064045 56 288 0.0 3.0 0.00 0.00 0.00 79 1008.4
20260505063504 56 279 0.0 4.0 0.00 0.00 0.00 79 1008.5
20260505063044 56 258 1.0 4.0 0.00 0.00 0.00 80 1008.5
20260505062511 56 14 0.0 3.0 0.00 0.00 0.00 79 1008.5
20260505062046 56 296 0.0 1.0 0.00 0.00 0.00 78 1008.4
20260505061525 56 256 0.0 4.0 0.00 0.00 0.00 78 1008.4
20260505061025 57 317 0.0 4.0 0.00 0.00 0.00 78 1008.4
20260505060600 57 291 0.0 0.0 0.00 0.00 0.00 78 1008.5
20260505060502 57 280 0.0 0.0 0.00 0.00 0.00 77 1008.5
20260505060052 57 357 0.0 0.0 0.00 0.00 0.00 77 1008.6
20260505055508 57 353 0.0 0.0 0.00 0.00 0.00 76 1008.5
20260505055032 58 290 0.0 0.0 0.00 0.00 0.00 75 1008.5
20260505054513 58 287 0.0 3.0 0.00 0.00 0.00 75 1008.6
20260505054041 58 260 0.0 5.0 0.00 0.00 0.00 75 1008.6
20260505053513 57 288 1.0 4.0 0.00 0.00 0.00 76 1008.7
20260505053046 57 282 1.0 5.0 0.00 0.00 0.00 76 1008.6
20260505052515 57 325 0.0 0.0 0.00 0.00 0.00 76 1008.7
20260505052029 57 325 0.0 0.0 0.00 0.00 0.00 75 1008.7
20260505051505 58 325 0.0 0.0 0.00 0.00 0.00 75 1008.7
20260505051040 58 325 0.0 0.0 0.00 0.00 0.00 74 1008.7
20260505050512 59 325 0.0 0.0 0.00 0.00 0.00 73 1008.8
20260505041519 61 279 0.0 3.0 0.00 0.00 0.00 69 1008.9
20260505041053 61 300 0.0 6.0 0.00 0.00 0.00 69 1009.0
20260505040531 61 292 3.0 6.0 0.00 0.00 0.00 69 1008.9
20260505040057 61 332 0.0 5.0 0.00 0.00 0.00 69 1008.9
20260505035532 61 267 1.0 5.0 0.00 0.00 0.00 69 1008.9
20260505035005 61 5 0.0 5.0 0.00 0.00 0.00 69 1008.8
20260505034532 61 283 1.0 5.0 0.00 0.00 0.00 69 1008.9
20260505034013 61 229 0.0 6.0 0.00 0.00 0.00 68 1008.8
20260505033545 62 294 0.0 5.0 0.00 0.00 0.00 67 1008.9
20260505033015 62 278 0.0 4.0 0.00 0.00 0.00 66 1008.7
20260505032547 62 295 0.0 5.0 0.00 0.00 0.00 66 1008.7
20260505032019 62 301 2.0 5.0 0.00 0.00 0.00 66 1009.0
20260505031553 63 268 0.0 1.0 0.00 0.00 0.00 64 1008.9
20260505031027 63 288 0.0 4.0 0.00 0.00 0.00 64 1008.9
20260505030503 63 300 0.0 4.0 0.00 0.00 0.00 63 1008.6
20260505030044 63 265 2.0 5.0 0.00 0.00 0.00 63 1008.6
20260505025551 64 304 1.0 5.0 0.00 0.00 0.00 63 1008.8
20260505025024 64 279 0.0 6.0 0.00 0.00 0.00 62 1008.9
20260505024600 64 310 1.0 6.0 0.00 0.00 0.00 62 1009.0
20260505024032 64 334 1.0 7.0 0.00 0.00 0.00 61 1008.9
20260505023502 64 290 3.0 6.0 0.00 0.00 0.00 61 1008.9
20260505023035 64 321 2.0 7.0 0.00 0.00 0.00 61 1008.7
20260505022549 65 308 1.0 6.0 0.00 0.00 0.00 61 1008.7
20260505022021 65 2 1.0 4.0 0.00 0.00 0.00 60 1008.7
20260505021555 65 275 0.0 5.0 0.00 0.00 0.00 60 1008.6
20260505021035 65 331 0.0 7.0 0.00 0.00 0.00 60 1008.7
20260505020504 65 298 3.0 7.0 0.00 0.00 0.00 59 1008.7
20260505020027 65 246 0.0 8.0 0.00 0.00 0.00 59 1008.8
20260505015553 65 269 1.0 8.0 0.00 0.00 0.00 59 1008.7
20260505015023 65 296 0.0 4.0 0.00 0.00 0.00 58 1008.6
20260505014610 66 5 0.0 4.0 0.00 0.00 0.00 58 1008.6
20260505014030 66 305 0.0 3.0 0.00 0.00 0.00 57 1008.6
20260505013545 66 357 0.0 3.0 0.00 0.00 0.00 56 1008.4
20260505013026 66 71 0.0 3.0 0.00 0.00 0.00 56 1008.5
20260505012550 66 271 0.0 7.0 0.00 0.00 0.00 57 1008.3
20260505012025 67 333 2.0 7.0 0.00 0.00 0.00 56 1008.1
20260505011559 67 45 0.0 4.0 0.00 0.00 0.00 56 1008.1
20260505011031 67 356 1.0 5.0 0.00 0.00 0.00 55 1008.1
20260505010546 67 338 0.0 5.0 0.00 0.00 0.00 56 1008.1
20260505010017 67 27 0.0 12.0 0.00 0.00 0.00 55 1008.0
20260505005551 67 277 3.0 12.0 0.00 0.00 0.00 55 1008.0
20260505005017 67 290 2.0 11.0 0.00 0.00 0.00 55 1008.0
20260505004554 67 238 4.0 11.0 0.00 0.00 0.00 55 1007.9
20260505004025 67 277 2.0 11.0 0.00 0.00 0.00 54 1007.9
20260505003558 67 212 0.0 7.0 0.00 0.00 0.00 55 1007.7
20260505003023 68 270 0.0 8.0 0.00 0.00 0.00 57 1007.7
20260505002548 68 232 2.0 8.0 0.00 0.00 0.00 56 1007.8
20260505002018 69 317 2.0 9.0 0.00 0.00 0.00 54 1007.9
20260505001552 70 296 2.0 11.0 0.00 0.00 0.00 53 1007.9
20260505001025 70 69 1.0 11.0 0.00 0.00 0.00 48 1007.9
20260505000556 70 347 4.0 10.0 0.00 0.00 0.00 48 1007.8
20260505000034 71 311 4.0 14.0 0.00 0.00 0.00 47 1007.8
20260504235505 71 304 7.0 14.0 0.00 0.00 0.00 47 1007.7
20260504235041 71 288 6.0 11.0 0.00 0.00 0.00 46 1007.6
20260504234514 71 324 5.0 11.0 0.00 0.00 0.00 46 1007.6
20260504234048 71 271 6.0 15.0 0.00 0.00 0.00 45 1007.5
20260504233523 72 270 5.0 19.0 0.00 0.00 0.00 45 1007.5
20260504233039 72 315 2.0 20.0 0.00 0.00 0.00 45 1007.3
20260504232515 72 298 4.0 15.0 0.00 0.00 0.00 45 1007.4
20260504232047 72 294 5.0 17.0 0.00 0.00 0.00 45 1007.3
20260504231527 72 271 8.0 17.0 0.00 0.00 0.00 44 1007.2
20260504231056 72 313 7.0 18.0 0.00 0.00 0.00 43 1007.2
20260504230516 72 274 7.0 14.0 0.00 0.00 0.00 44 1007.2
20260504230044 72 295 7.0 12.0 0.00 0.00 0.00 44 1007.2
20260504225515 73 321 4.0 14.0 0.00 0.00 0.00 44 1007.2
20260504225048 73 290 6.0 14.0 0.00 0.00 0.00 43 1007.2
20260504224526 73 223 5.0 16.0 0.00 0.00 0.00 44 1007.1
20260504224040 73 276 6.0 16.0 0.00 0.00 0.00 43 1007.2
20260504223516 73 307 5.0 14.0 0.00 0.00 0.00 42 1007.2
20260504223102 74 300 5.0 17.0 0.00 0.00 0.00 42 1007.1
20260504222523 74 256 9.0 19.0 0.00 0.00 0.00 40 1007.1
20260504222058 75 257 10.0 19.0 0.00 0.00 0.00 40 1007.1
20260504221532 75 278 9.0 17.0 0.00 0.00 0.00 40 1007.0
20260504221005 75 273 6.0 16.0 0.00 0.00 0.00 39 1007.1
20260504220518 75 255 7.0 18.0 0.00 0.00 0.00 39 1007.1
20260504220052 75 335 8.0 18.0 0.00 0.00 0.00 39 1007.1
20260504215518 76 262 10.0 21.0 0.00 0.00 0.00 38 1007.1
20260504215050 76 194 8.0 16.0 0.00 0.00 0.00 38 1007.0
20260504214510 76 263 6.0 17.0 0.00 0.00 0.00 38 1007.0
20260504214048 75 272 3.0 17.0 0.00 0.00 0.00 40 1007.0
20260504213516 76 263 7.0 16.0 0.00 0.00 0.00 39 1006.9
20260504213048 76 288 7.0 18.0 0.00 0.00 0.00 39 1007.0
20260504212520 76 318 10.0 18.0 0.00 0.00 0.00 37 1007.1
20260504212053 77 338 7.0 17.0 0.00 0.00 0.00 37 1007.1
20260504211535 77 284 3.0 11.0 0.00 0.00 0.00 38 1007.0
20260504211047 77 354 3.0 15.0 0.00 0.00 0.00 40 1007.0
20260504210516 76 265 5.0 15.0 0.00 0.00 0.00 38 1007.0
20260504210053 76 252 7.0 11.0 0.00 0.00 0.00 39 1007.0
20260504205523 75 324 4.0 10.0 0.00 0.00 0.00 38 1007.1
20260504205055 76 275 3.0 8.0 0.00 0.00 0.00 39 1007.1
20260504204518 75 242 2.0 15.0 0.00 0.00 0.00 40 1007.0
20260504204044 75 250 5.0 15.0 0.00 0.00 0.00 39 1007.2
20260504203516 74 296 2.0 10.0 0.00 0.00 0.00 40 1007.2
20260504203050 74 323 4.0 11.0 0.00 0.00 0.00 41 1007.3
20260504202528 74 313 3.0 14.0 0.00 0.00 0.00 40 1007.4
20260504202044 74 237 4.0 16.0 0.00 0.00 0.00 39 1007.6
20260504201514 74 259 7.0 16.0 0.00 0.00 0.00 37 1007.6
20260504201048 74 296 5.0 14.0 0.00 0.00 0.00 38 1007.5
20260504200522 75 290 4.0 14.0 0.00 0.00 0.00 39 1007.7
20260504200055 75 304 5.0 13.0 0.00 0.00 0.00 37 1007.7